| time (UTC) | temp C | wind direction | speed KPH | gust KPH | rain 1hr cm | rain 24hr cm | rain mn cm | humidity % | barometer mb |
| 20260504190005 | 17 | 288 | 0.0 | 0.0 | 0.00 | 0.00 | 0.00 | 31 | 1061.9 |
| 20260504185507 | 17 | 281 | 0.0 | 0.0 | 0.00 | 0.00 | 0.00 | 33 | 1061.9 |
| 20260504185009 | 17 | 294 | 0.0 | 0.0 | 0.00 | 0.00 | 0.00 | 35 | 1061.9 |
| 20260504184511 | 17 | 301 | 0.0 | 0.0 | 0.00 | 0.00 | 0.00 | 35 | 1061.9 |
| 20260504184013 | 17 | 306 | 0.0 | 0.0 | 0.00 | 0.00 | 0.00 | 33 | 1061.9 |
| 20260504183514 | 17 | 256 | 0.0 | 0.0 | 0.00 | 0.00 | 0.00 | 31 | 1061.9 |
| 20260504183006 | 17 | 271 | 0.0 | 0.0 | 0.00 | 0.00 | 0.00 | 29 | 1061.9 |
| 20260504182508 | 17 | 276 | 0.0 | 0.0 | 0.00 | 0.00 | 0.00 | 30 | 1061.9 |
| 20260504182009 | 17 | 293 | 0.0 | 0.0 | 0.00 | 0.00 | 0.00 | 31 | 1061.9 |
| 20260504181511 | 17 | 312 | 0.0 | 0.0 | 0.00 | 0.00 | 0.00 | 31 | 1061.9 |
| 20260504181014 | 17 | 291 | 0.0 | 0.0 | 0.00 | 0.00 | 0.00 | 33 | 1061.9 |
| 20260504180516 | 17 | 292 | 0.0 | 0.0 | 0.00 | 0.00 | 0.00 | 33 | 1061.9 |
| 20260504180008 | 17 | 287 | 0.0 | 0.0 | 0.00 | 0.00 | 0.00 | 34 | 1061.9 |
| 20260504175509 | 17 | 300 | 0.0 | 0.0 | 0.00 | 0.00 | 0.00 | 33 | 1061.9 |
| 20260504175011 | 17 | 301 | 0.0 | 0.0 | 0.00 | 0.00 | 0.00 | 34 | 1061.9 |
| 20260504174513 | 17 | 297 | 0.0 | 0.0 | 0.00 | 0.00 | 0.00 | 34 | 1061.9 |
| 20260504174014 | 17 | 306 | 0.0 | 0.0 | 0.00 | 0.00 | 0.00 | 34 | 1061.9 |
| 20260504173506 | 16 | 312 | 0.0 | 0.0 | 0.00 | 0.00 | 0.00 | 33 | 1061.9 |
| 20260504173008 | 17 | 297 | 0.0 | 0.0 | 0.00 | 0.00 | 0.00 | 33 | 1061.9 |
| 20260504172510 | 17 | 286 | 0.0 | 0.0 | 0.00 | 0.00 | 0.00 | 33 | 1061.9 |
| 20260504172011 | 17 | 292 | 0.0 | 0.0 | 0.00 | 0.00 | 0.00 | 33 | 1061.9 |
| 20260504171513 | 17 | 299 | 0.0 | 0.0 | 0.00 | 0.00 | 0.00 | 32 | 1061.9 |
| 20260504171015 | 17 | 296 | 0.0 | 0.0 | 0.00 | 0.00 | 0.00 | 32 | 1061.9 |
| 20260504170506 | 17 | 283 | 0.0 | 0.0 | 0.00 | 0.00 | 0.00 | 31 | 1061.9 |
| 20260504151008 | 15 | 350 | 0.0 | 0.0 | 0.00 | 0.00 | 0.00 | 36 | 1061.9 |
| 20260504150510 | 16 | 343 | 0.0 | 0.0 | 0.00 | 0.00 | 0.00 | 42 | 1061.9 |
| 20260504141010 | 14 | 318 | 0.0 | 0.0 | 0.00 | 0.00 | 0.00 | 56 | 1061.9 |
| 20260504140512 | 14 | 308 | 0.0 | 0.0 | 0.00 | 0.00 | 0.00 | 56 | 1061.9 |
| 20260504130513 | 12 | 245 | 0.0 | 0.0 | 0.00 | 0.00 | 0.00 | 58 | 1061.9 |
| 20260504110508 | 9 | 199 | 0.0 | 0.0 | 0.00 | 0.00 | 0.00 | 65 | 1061.9 |
| 20260504100508 | 11 | 199 | 0.0 | 0.0 | 0.00 | 0.00 | 0.00 | 59 | 1061.9 |
| 20260504082007 | 10 | 175 | 0.0 | 0.0 | 0.00 | 0.00 | 0.00 | 59 | 1061.9 |
| 20260504081508 | 10 | 183 | 0.0 | 0.0 | 0.00 | 0.00 | 0.00 | 58 | 1061.9 |
| 20260504081010 | 10 | 174 | 0.0 | 0.0 | 0.00 | 0.00 | 0.00 | 58 | 1061.9 |
| 20260504080512 | 10 | 177 | 0.0 | 0.0 | 0.00 | 0.00 | 0.00 | 58 | 1061.9 |
| 20260504050507 | 11 | 199 | 0.0 | 0.0 | 0.00 | 0.00 | 0.00 | 52 | 1061.9 |
| 20260504050012 | 11 | 209 | 0.0 | 0.0 | 0.00 | 0.00 | 0.00 | 52 | 1061.9 |
| 20260504045511 | 11 | 197 | 0.0 | 0.0 | 0.00 | 0.00 | 0.00 | 51 | 1061.9 |
| 20260504045014 | 11 | 199 | 0.0 | 0.0 | 0.00 | 0.00 | 0.00 | 51 | 1061.9 |
| 20260504044516 | 11 | 214 | 0.0 | 0.0 | 0.00 | 0.00 | 0.00 | 50 | 1061.9 |
| 20260504044007 | 12 | 207 | 0.0 | 0.0 | 0.00 | 0.00 | 0.00 | 49 | 1061.9 |
| 20260504043509 | 11 | 196 | 0.0 | 0.0 | 0.00 | 0.00 | 0.00 | 49 | 1061.9 |
| 20260504043011 | 11 | 196 | 0.0 | 0.0 | 0.00 | 0.00 | 0.00 | 51 | 1061.9 |
| 20260504042513 | 11 | 197 | 0.0 | 0.0 | 0.00 | 0.00 | 0.00 | 50 | 1061.9 |
| 20260504042015 | 11 | 227 | 0.0 | 0.0 | 0.00 | 0.00 | 0.00 | 49 | 1061.9 |
| 20260504041506 | 11 | 195 | 0.0 | 0.0 | 0.00 | 0.00 | 0.00 | 49 | 1061.9 |
| 20260504041008 | 12 | 189 | 0.0 | 0.0 | 0.00 | 0.00 | 0.00 | 48 | 1061.9 |
| 20260504040510 | 11 | 178 | 0.0 | 0.0 | 0.00 | 0.00 | 0.00 | 48 | 1061.9 |
| 20260504040011 | 12 | 192 | 0.0 | 0.0 | 0.00 | 0.00 | 0.00 | 48 | 1061.9 |
| 20260504035513 | 12 | 179 | 0.0 | 0.0 | 0.00 | 0.00 | 0.00 | 47 | 1061.9 |
| 20260504035015 | 12 | 202 | 0.0 | 0.0 | 0.00 | 0.00 | 0.00 | 47 | 1061.9 |
| 20260504034506 | 12 | 200 | 0.0 | 0.0 | 0.00 | 0.00 | 0.00 | 46 | 1061.9 |
| 20260504034009 | 12 | 181 | 0.0 | 0.0 | 0.00 | 0.00 | 0.00 | 46 | 1061.9 |
| 20260504033511 | 12 | 189 | 0.0 | 0.0 | 0.00 | 0.00 | 0.00 | 45 | 1061.9 |
| 20260504033013 | 12 | 190 | 0.0 | 0.0 | 0.00 | 0.00 | 0.00 | 45 | 1061.9 |
| 20260504032515 | 13 | 222 | 0.0 | 0.0 | 0.00 | 0.00 | 0.00 | 44 | 1061.9 |
| 20260504032017 | 13 | 203 | 0.0 | 0.0 | 0.00 | 0.00 | 0.00 | 44 | 1061.9 |
| 20260504031508 | 13 | 203 | 0.0 | 0.0 | 0.00 | 0.00 | 0.00 | 43 | 1061.9 |
| 20260504031010 | 13 | 269 | 0.0 | 0.0 | 0.00 | 0.00 | 0.00 | 43 | 1061.9 |
| 20260504030511 | 13 | 266 | 0.0 | 0.0 | 0.00 | 0.00 | 0.00 | 43 | 1061.9 |
| 20260504030013 | 13 | 270 | 0.0 | 0.0 | 0.00 | 0.00 | 0.00 | 43 | 1061.9 |
| 20260504025515 | 13 | 277 | 0.0 | 0.0 | 0.00 | 0.00 | 0.00 | 42 | 1061.9 |
| 20260504025006 | 13 | 269 | 0.0 | 0.0 | 0.00 | 0.00 | 0.00 | 41 | 1061.9 |
| 20260504024508 | 13 | 243 | 0.0 | 0.0 | 0.00 | 0.00 | 0.00 | 41 | 1061.9 |
| 20260504024010 | 13 | 258 | 0.0 | 0.0 | 0.00 | 0.00 | 0.00 | 41 | 1061.9 |
| 20260504023513 | 13 | 260 | 0.0 | 0.0 | 0.00 | 0.00 | 0.00 | 41 | 1061.9 |
| 20260504023015 | 13 | 259 | 0.0 | 0.0 | 0.00 | 0.00 | 0.00 | 41 | 1061.9 |
| 20260504022506 | 13 | 261 | 0.0 | 0.0 | 0.00 | 0.00 | 0.00 | 41 | 1061.9 |
| 20260504022008 | 13 | 254 | 0.0 | 0.0 | 0.00 | 0.00 | 0.00 | 41 | 1061.9 |
| 20260504021510 | 14 | 258 | 0.0 | 0.0 | 0.00 | 0.00 | 0.00 | 40 | 1061.9 |
| 20260504021012 | 14 | 256 | 0.0 | 0.0 | 0.00 | 0.00 | 0.00 | 40 | 1061.9 |
| 20260504020513 | 15 | 254 | 0.0 | 0.0 | 0.00 | 0.00 | 0.00 | 39 | 1061.9 |
| 20260504020016 | 15 | 255 | 0.0 | 0.0 | 0.00 | 0.00 | 0.00 | 39 | 1061.9 |
| 20260504015507 | 15 | 248 | 0.0 | 0.0 | 0.00 | 0.00 | 0.00 | 38 | 1061.9 |
| 20260504015008 | 15 | 253 | 0.0 | 0.0 | 0.00 | 0.00 | 0.00 | 37 | 1061.9 |
| 20260504014510 | 15 | 250 | 0.0 | 0.0 | 0.00 | 0.00 | 0.00 | 37 | 1061.9 |
| 20260504014012 | 15 | 240 | 0.0 | 0.0 | 0.00 | 0.00 | 0.00 | 36 | 1061.9 |
| 20260504013514 | 16 | 244 | 0.0 | 0.0 | 0.00 | 0.00 | 0.00 | 35 | 1061.9 |
| 20260504013006 | 16 | 246 | 0.0 | 0.0 | 0.00 | 0.00 | 0.00 | 35 | 1061.9 |
| 20260504012508 | 16 | 244 | 0.0 | 0.0 | 0.00 | 0.00 | 0.00 | 34 | 1061.9 |
| 20260504012010 | 17 | 250 | 0.0 | 0.0 | 0.00 | 0.00 | 0.00 | 34 | 1061.9 |
| 20260504011512 | 17 | 239 | 0.0 | 0.0 | 0.00 | 0.00 | 0.00 | 33 | 1061.9 |
| 20260504011014 | 18 | 244 | 0.0 | 0.0 | 0.00 | 0.00 | 0.00 | 32 | 1061.9 |
| 20260504010515 | 18 | 248 | 0.0 | 0.0 | 0.00 | 0.00 | 0.00 | 31 | 1061.9 |
| 20260504010007 | 18 | 241 | 0.0 | 0.0 | 0.00 | 0.00 | 0.00 | 30 | 1061.9 |
| 20260504005508 | 19 | 244 | 0.0 | 0.0 | 0.00 | 0.00 | 0.00 | 28 | 1061.9 |
| 20260504005010 | 20 | 234 | 0.0 | 0.0 | 0.00 | 0.00 | 0.00 | 28 | 1061.9 |
| 20260504004512 | 20 | 231 | 0.0 | 0.0 | 0.00 | 0.00 | 0.00 | 28 | 1061.9 |
| 20260504004014 | 20 | 238 | 0.0 | 0.0 | 0.00 | 0.00 | 0.00 | 27 | 1061.9 |
| 20260504003505 | 20 | 241 | 0.0 | 0.0 | 0.00 | 0.00 | 0.00 | 27 | 1061.9 |
| 20260504003007 | 20 | 253 | 0.0 | 0.0 | 0.00 | 0.00 | 0.00 | 27 | 1061.9 |
| 20260504002509 | 20 | 235 | 0.0 | 0.0 | 0.00 | 0.00 | 0.00 | 28 | 1061.9 |
| 20260504002011 | 20 | 244 | 0.0 | 0.0 | 0.00 | 0.00 | 0.00 | 28 | 1061.9 |
| 20260504001512 | 20 | 240 | 0.0 | 0.0 | 0.00 | 0.00 | 0.00 | 27 | 1061.9 |
| 20260504001015 | 21 | 234 | 0.0 | 0.0 | 0.00 | 0.00 | 0.00 | 26 | 1061.9 |
| 20260504000507 | 21 | 234 | 0.0 | 0.0 | 0.00 | 0.00 | 0.00 | 25 | 1061.9 |
| 20260504000009 | 21 | 240 | 0.0 | 0.0 | 0.00 | 0.00 | 0.00 | 26 | 1061.9 |
| 20260503235510 | 21 | 252 | 0.0 | 0.0 | 0.00 | 0.00 | 0.00 | 26 | 1061.9 |
| 20260503235012 | 21 | 253 | 0.0 | 0.0 | 0.00 | 0.00 | 0.00 | 26 | 1061.9 |
| 20260503234514 | 21 | 259 | 0.0 | 0.0 | 0.00 | 0.00 | 0.00 | 25 | 1061.9 |
| 20260503234005 | 21 | 250 | 0.0 | 0.0 | 0.00 | 0.00 | 0.00 | 25 | 1061.9 |
| 20260503233507 | 21 | 258 | 0.0 | 0.0 | 0.00 | 0.00 | 0.00 | 25 | 1061.9 |
| 20260503233009 | 21 | 250 | 0.0 | 0.0 | 0.00 | 0.00 | 0.00 | 25 | 1061.9 |
| 20260503232511 | 21 | 258 | 0.0 | 0.0 | 0.00 | 0.00 | 0.00 | 24 | 1061.9 |
| 20260503232013 | 21 | 240 | 0.0 | 0.0 | 0.00 | 0.00 | 0.00 | 24 | 1061.9 |
| 20260503231514 | 21 | 248 | 0.0 | 0.0 | 0.00 | 0.00 | 0.00 | 24 | 1061.9 |
| 20260503231006 | 21 | 234 | 0.0 | 0.0 | 0.00 | 0.00 | 0.00 | 23 | 1061.9 |
| 20260503230508 | 21 | 238 | 0.0 | 0.0 | 0.00 | 0.00 | 0.00 | 23 | 1061.9 |
| 20260503230009 | 21 | 232 | 0.0 | 0.0 | 0.00 | 0.00 | 0.00 | 24 | 1061.9 |
| 20260503225512 | 21 | 248 | 0.0 | 0.0 | 0.00 | 0.00 | 0.00 | 24 | 1061.9 |
| 20260503225014 | 21 | 252 | 0.0 | 0.0 | 0.00 | 0.00 | 0.00 | 25 | 1061.9 |
| 20260503224516 | 21 | 236 | 0.0 | 0.0 | 0.00 | 0.00 | 0.00 | 25 | 1061.9 |
| 20260503224007 | 21 | 241 | 0.0 | 0.0 | 0.00 | 0.00 | 0.00 | 26 | 1061.9 |
| 20260503223509 | 21 | 263 | 0.0 | 0.0 | 0.00 | 0.00 | 0.00 | 26 | 1061.9 |
| 20260503223011 | 21 | 255 | 0.0 | 0.0 | 0.00 | 0.00 | 0.00 | 26 | 1061.9 |
| 20260503222513 | 21 | 253 | 0.0 | 0.0 | 0.00 | 0.00 | 0.00 | 26 | 1061.9 |
| 20260503222014 | 21 | 278 | 0.0 | 0.0 | 0.00 | 0.00 | 0.00 | 27 | 1061.9 |
| 20260503221506 | 21 | 281 | 0.0 | 0.0 | 0.00 | 0.00 | 0.00 | 25 | 1061.9 |
| 20260503221008 | 22 | 265 | 0.0 | 0.0 | 0.00 | 0.00 | 0.00 | 25 | 1061.9 |
| 20260503220509 | 22 | 248 | 0.0 | 0.0 | 0.00 | 0.00 | 0.00 | 24 | 1061.9 |
| 20260503220011 | 21 | 246 | 0.0 | 0.0 | 0.00 | 0.00 | 0.00 | 25 | 1061.9 |
| 20260503215513 | 21 | 295 | 0.0 | 0.0 | 0.00 | 0.00 | 0.00 | 27 | 1061.9 |
| 20260503215015 | 22 | 273 | 0.0 | 0.0 | 0.00 | 0.00 | 0.00 | 26 | 1061.9 |
| 20260503214506 | 22 | 241 | 0.0 | 0.0 | 0.00 | 0.00 | 0.00 | 26 | 1061.9 |
| 20260503214008 | 21 | 236 | 0.0 | 0.0 | 0.00 | 0.00 | 0.00 | 26 | 1061.9 |
| 20260503213510 | 21 | 263 | 0.0 | 0.0 | 0.00 | 0.00 | 0.00 | 26 | 1061.9 |
| 20260503213013 | 21 | 265 | 0.0 | 0.0 | 0.00 | 0.00 | 0.00 | 24 | 1061.9 |
| 20260503212515 | 21 | 273 | 0.0 | 0.0 | 0.00 | 0.00 | 0.00 | 23 | 1061.9 |
| 20260503212006 | 21 | 280 | 0.0 | 0.0 | 0.00 | 0.00 | 0.00 | 24 | 1061.9 |
| 20260503211508 | 21 | 296 | 0.0 | 0.0 | 0.00 | 0.00 | 0.00 | 23 | 1061.9 |
| 20260503211010 | 21 | 294 | 0.0 | 0.0 | 0.00 | 0.00 | 0.00 | 24 | 1061.9 |
| 20260503210511 | 21 | 296 | 0.0 | 0.0 | 0.00 | 0.00 | 0.00 | 24 | 1061.9 |
| 20260503210013 | 21 | 284 | 0.0 | 0.0 | 0.00 | 0.00 | 0.00 | 26 | 1061.9 |
| 20260503205515 | 21 | 281 | 0.0 | 0.0 | 0.00 | 0.00 | 0.00 | 26 | 1061.9 |
| 20260503205006 | 21 | 297 | 0.0 | 0.0 | 0.00 | 0.00 | 0.00 | 28 | 1061.9 |
| 20260503204508 | 21 | 298 | 0.0 | 0.0 | 0.00 | 0.00 | 0.00 | 28 | 1061.9 |
| 20260503204010 | 21 | 289 | 0.0 | 0.0 | 0.00 | 0.00 | 0.00 | 27 | 1061.9 |
| 20260503203512 | 21 | 271 | 0.0 | 0.0 | 0.00 | 0.00 | 0.00 | 25 | 1061.9 |
| 20260503203013 | 21 | 269 | 0.0 | 0.0 | 0.00 | 0.00 | 0.00 | 26 | 1061.9 |
| 20260503202515 | 21 | 291 | 0.0 | 0.0 | 0.00 | 0.00 | 0.00 | 27 | 1061.9 |
| 20260503202007 | 21 | 305 | 0.0 | 0.0 | 0.00 | 0.00 | 0.00 | 29 | 1061.9 |
| 20260503201508 | 21 | 291 | 0.0 | 0.0 | 0.00 | 0.00 | 0.00 | 28 | 1061.9 |
| 20260503201012 | 21 | 270 | 0.0 | 0.0 | 0.00 | 0.00 | 0.00 | 27 | 1061.9 |
| 20260503200513 | 21 | 301 | 0.0 | 0.0 | 0.00 | 0.00 | 0.00 | 28 | 1061.9 |
| 20260503200015 | 21 | 304 | 0.0 | 0.0 | 0.00 | 0.00 | 0.00 | 28 | 1061.9 |
| 20260503195506 | 21 | 278 | 0.0 | 0.0 | 0.00 | 0.00 | 0.00 | 27 | 1061.9 |
| 20260503195008 | 20 | 265 | 0.0 | 0.0 | 0.00 | 0.00 | 0.00 | 28 | 1061.9 |
| 20260503194510 | 21 | 269 | 0.0 | 0.0 | 0.00 | 0.00 | 0.00 | 28 | 1061.9 |
| 20260503194012 | 20 | 258 | 0.0 | 0.0 | 0.00 | 0.00 | 0.00 | 30 | 1061.9 |
| 20260503193513 | 20 | 313 | 0.0 | 0.0 | 0.00 | 0.00 | 0.00 | 30 | 1061.9 |
| 20260503193015 | 20 | 292 | 0.0 | 0.0 | 0.00 | 0.00 | 0.00 | 32 | 1061.9 |
| 20260503192507 | 20 | 280 | 0.0 | 0.0 | 0.00 | 0.00 | 0.00 | 31 | 1061.9 |
| 20260503192009 | 20 | 281 | 0.0 | 0.0 | 0.00 | 0.00 | 0.00 | 30 | 1061.9 |
| 20260503191510 | 20 | 292 | 0.0 | 0.0 | 0.00 | 0.00 | 0.00 | 30 | 1061.9 |
| 20260503191012 | 20 | 329 | 0.0 | 0.0 | 0.00 | 0.00 | 0.00 | 31 | 1061.9 |
| 20260503190514 | 20 | 274 | 0.0 | 0.0 | 0.00 | 0.00 | 0.00 | 30 | 1061.9 |